Location: Ferma
(41.9500°N, 44.5167°E)
Time: 17:15:45
(UTC+00:00)

FENGYUN 1C DEB - Visible Passes

Search period start: 11 August 2022 00:00
Search period end: 21 August 2022 00:00
Orbit: 607 x 929 km, 99.7° (Epoch: 09 August)

Date Brightness Start Highest point End Pass type
(mag) Time Alt. Az. Time Alt. Az. Time Alt. Az.
11 Aug ? 16:37:14 10° ESE 16:40:41 19° ENE 16:44:20 10° NNE visible
11 Aug ? 18:16:33 28° S 18:19:00 58° WSW 18:24:14 10° NNW visible
12 Aug ? 17:40:19 25° SSE 17:43:12 66° ENE 17:48:32 10° N visible
12 Aug ? 19:20:35 12° WSW 19:22:43 15° W 19:25:38 10° NW visible
13 Aug ? 17:04:05 14° ESE 17:07:39 32° ENE 17:12:23 10° N visible
13 Aug ? 18:44:21 24° SW 18:46:28 33° W 18:51:16 10° NNW visible
14 Aug ? 16:29:13 10° E 16:32:21 16° ENE 16:35:37 10° NNE visible
14 Aug ? 18:08:07 32° S 18:10:29 73° WSW 18:15:56 10° NNW visible
15 Aug ? 17:31:53 24° SE 17:34:45 53° ENE 17:40:06 10° N visible
15 Aug ? 19:12:10 16° WSW 19:14:03 19° W 19:17:52 10° NW visible
16 Aug ? 16:55:39 13° ESE 16:59:17 27° ENE 17:03:50 10° N visible
16 Aug ? 18:35:55 30° SSW 18:37:53 42° W 18:43:05 10° NNW visible
17 Aug ? 16:21:21 10° E 16:24:02 14° NE 16:26:49 10° NNE visible
17 Aug ? 17:59:42 35° SSE 18:01:59 89° WSW 18:07:34 10° NNW visible
17 Aug ? 19:40:23 10° WSW 19:41:45 11° W 19:43:09 10° WNW visible
18 Aug ? 17:23:29 23° SE 17:26:20 44° ENE 17:31:38 10° N visible
18 Aug ? 19:03:45 21° WSW 19:05:26 25° W 19:09:55 10° NW visible
19 Aug ? 16:47:16 12° ESE 16:50:56 23° ENE 16:55:14 10° N visible
19 Aug ? 18:27:32 36° SSW 18:29:21 53° W 18:34:50 10° NNW visible
20 Aug ? 17:51:19 36° SSE 17:53:31 75° ENE 17:59:11 10° NNW visible
20 Aug ? 19:31:36 13° WSW 19:33:05 15° W 19:36:04 10° WNW visible
